SCP
0 0 0 0 0 0 0 0 0 0 0 0 0 0 0 0 0 0 0 0 0 0 0 0 0 0 0 0 0 0 0 0 0 0 0 0 0 0 0 0 0 0 0
0 0 0 0 0 0 0 0 0 0 0 0 0 0 0 0 0 0 0 0 0 0 0 0 0 0 0 0 0 0 0 0 0 0 0 0 0 0 0 0 0 0 0
0 0 0 0 0 0 0 0 0 0 0 0 0 0 0 0 0 0 0 0 0 0 0 0 0 0 0 0 0 0 0 0 0 0 0 0 0 0 0 0 0 0 0
0 0 0 0 0 0 0 0 0 0 0 0 0 0 0 0 0 0 0 0 0 0 0 0 0 0 0 0 0 0 0 0 0 0 0 0 0 0 0 0 0 0 0
0 0 0 0 0 0 0 0 0 0 0 0 0 0 0 0 0 0 0 0 0 0 0 0 0 0 0 0 0 0 0 0 0 0 0 0 0 0 0 0 0 0 0
0 0 0 0 0 0 0 0 0 0 0 0 0 0 0 0 0 0 0 0 0 0 0 0 0 0 0 0 0 0 0 0 0 0 0 0 0 0 0 0 0 0 0
0 0 0 0 0 0 0 0 0 0 0 0 0 0 0 0 0 0 0 0 0 0 0 0 0 0 0 0 0 0 0 0 0 0 0 0 0 0 0 0 0 0 0
0 0 0 0 0 0 0 0 0 0 0 0 0 0 0 0 0 0 0 0 0 0 0 0 0 0 0 0 0 0 0 0 0 0 0 0 0 0 0 0 0 0 0
0 0 0 0 0 0 0 0 0 0 0 0 0 0 0 0 0 0 0 0 0 0 0 0 0 0 0 0 0 0 0 0 0 0 0 0 0 0 0 0 0 0 0
0 0 0 0 0 0 0 0 0 0 0 0 0 0 0 0 0 0 0 0 0 0 0 0 0 0 0 0 0 0 0 0 0 0 0 0 0 0 0 0 0 0 0
0 0 0 0 0 0 0 0 0 0 0 0 0 0 0 0 0 0 0 0 0 0 0 0 0 0 0 0 0 0 0 0 0 0 0 0 0 0 0 0 0 0 0
0 0 0 0 0 0 0 0 0 0 0 0 0 0 0 0 0 0 0 0 0 0 0 0 0 0 0 0 0 0 0 0 0 0 0 0 0 0 0 0 0 0 0
0 0 0 0 0 0 0 0 0 0 0 0 0 0 0 0 0 0 0 0 0 0 0 0 0 0 0 0 0 0 0 0 0 0 0 0 0 0 0 0 0 0 0
0 0 0 0 0 0 0 0 0 0 0 0 0 0 0 0 0 0 0 0 0 0 0 0 0 0 0 0 0 0 0 0 0 0 0 0 0 0 0 0 0 0 0
0 0 0 0 0 0 0 0 0 0 0 0 0 0 0 0 0 0 0 0 0 0 0 0 0 0 0 0 0 0 0 0 0 0 0 0 0 0 0 0 0 0 0
0 0 0 0 0 0 0 0 0 0 0 0 0 0 0 0 0 0 0 0 0 0 0 0 0 0 0 0 0 0 0 0 0 0 0 0 0 0 0 0 0 0 0
0 0 0 0 0 0 0 0 0 0 0 0 0 0 0 0 0 0 0 0 0 0 0 0 0 0 0 0 0 0 0 0 0 0 0 0 0 0 0 0 0 0 0
0 0 0 0 0 0 0 0 0 0 0 0 0 0 0 0 0 0 0 0 0 0 0 0 0 0 0 0 0 0 0 0 0 0 0 0 0 0 0 0 0 0 0
0 0 0 0 0 0 0 0 0 0 0 0 0 0 0 0 0 0 0 0 0 0 0 0 0 0 0 0 0 0 0 0 0 0 0 0 0 0 0 0 0 0 0
0 0 0 0 0 0 0 0 0 0 0 0 0 0 0 0 0 0 0 0 0 0 0 0 0 0 0 0 0 0 0 0 0 0 0 0 0 0 0 0 0 0 0
0 0 0 0 0 0 0 0 0 0 0 0 0 0 0 0 0 0 0 0 0 0 0 0 0 0 0 0 0 0 0 0 0 0 0 0 0 0 0 0 0 0 0
1 0 0 0 0 0 0 0 0 0 0 0 0 0 0 0 0 0 0 0 0 0 0 0 0 0 0 0 0 0 0 0 0 0 0 0 0 0 0 0 0 0 0
1 1 1 1 0 0 0 0 0 0 0 0 0 0 0 0 0 0 0 0 0 1 0 0 0 0 0 0 0 0 0 0 0 0 0 0 0 0 0 0 0 0 0
1 1 1 1 1 0 0 0 0 0 0 0 0 0 0 0 0 0 0 0 0 0 0 0 0 0 0 0 0 0 0 0 0 0 0 0 0 0 0 0 0 0 0
1 1 1 1 1 1 0 0 0 0 0 0 0 0 0 0 0 0 0 0 0 0 0 0 0 0 0 0 0 0 0 0 0 0 0 0 0 0 0 0 0 0 0
1 1 1 1 1 1 0 0 0 0 0 0 0 0 0 0 0 0 0 0 0 0 0 0 0 0 0 0 0 0 0 0 0 0 0 0 0 0 0 0 0 0 0
Wind_Speed
6 8 13 14 14 14 13 13 13 12 13 13 13 13 13 13 13 12 13 13 13 14 14 14 14 13 13 13 13 13 13 13 13 13 13 12 12 12 12 11 10 7 12
10 10 13 13 14 14 13 13 13 12 12 12 12 12 12 12 13 13 12 12 13 13 13 13 13 12 12 11 11 11 11 10 10 10 10 9 10 10 10 9 9 6 10
12 10 11 12 14 14 14 13 13 12 12 12 12 12 12 12 12 12 12 12 12 12 12 12 12 11 10 10 9 9 8 8 7 6 7 3 4 8 8 8 8 8 8
13 10 10 12 14 14 14 13 13 12 12 12 12 12 12 12 11 11 11 11 11 11 11 10 10 10 9 8 8 7 7 7 7 6 3 2 2 6 7 6 7 6 6
11 9 10 13 14 15 14 13 13 12 12 12 12 12 11 11 11 11 10 10 9 9 9 9 9 8 7 7 6 6 7 7 7 5 2 2 1 4 5 5 5 4 4
10 9 11 13 15 15 14 13 13 12 12 12 12 11 11 11 10 10 9 9 9 8 8 8 7 7 6 5 4 5 6 7 5 2 1 1 1 3 3 3 3 2 1
10 8 10 13 13 14 14 13 13 12 12 12 11 11 11 10 10 9 9 9 8 7 7 7 6 5 4 3 2 3 4 5 3 2 0 1 1 3 2 2 2 2 1
11 9 9 12 12 12 12 12 12 12 12 11 11 11 10 10 9 9 8 8 8 7 6 6 5 4 3 2 0 2 3 3 3 2 1 2 3 4 4 4 3 4 4
10 9 7 8 9 11 11 10 10 10 10 10 10 10 9 8 8 7 7 7 7 7 6 6 5 4 3 2 2 3 3 3 1 1 3 2 5 5 6 6 6 6 6
9 9 8 7 7 7 7 10 10 10 9 9 9 9 8 8 7 7 6 6 7 7 6 6 5 5 4 4 4 4 5 4 2 2 2 4 7 7 7 7 8 8 8
9 8 8 8 7 7 6 8 8 9 9 9 8 9 8 4 4 5 6 7 7 7 7 6 6 6 5 5 5 6 5 2 3 3 3 7 9 9 9 9 10 10 10
12 10 9 9 8 7 7 5 4 5 5 5 5 6 4 4 4 5 7 8 8 7 7 7 7 6 5 3 4 5 2 4 3 3 4 10 11 11 11 11 11 12 12
11 10 10 10 9 8 5 5 4 3 4 5 6 6 4 4 3 3 3 4 5 6 4 4 4 3 3 3 3 3 4 4 3 3 5 10 12 13 13 13 13 13 14
10 11 11 10 9 9 7 6 5 4 4 4 5 6 5 3 3 3 3 3 3 3 3 3 3 4 4 5 5 5 5 4 4 3 5 11 13 14 15 15 15 15 15
11 11 11 11 11 9 8 6 7 6 6 6 5 6 6 5 5 4 3 3 4 3 4 4 4 5 5 5 5 6 6 6 6 5 4 10 12 15 16 17 17 16 16
12 12 11 11 11 10 9 7 7 7 6 6 6 7 8 6 5 5 4 4 4 4 4 5 5 5 5 4 5 6 6 6 6 6 6 7 12 14 17 17 17 17 16
13 12 12 12 11 11 10 9 7 7 7 6 6 7 8 7 7 6 5 5 5 5 5 4 5 4 4 4 6 6 6 6 6 7 6 5 6 10 14 17 17 16 16
11 11 12 11 11 12 10 9 7 6 7 6 6 6 9 9 8 6 5 5 5 4 4 4 4 4 4 4 4 5 5 5 7 7 6 6 5 5 8 13 14 15 15
13 12 12 12 12 12 10 8 7 6 7 6 6 6 7 9 8 7 6 5 5 4 4 4 4 4 4 4 5 4 5 5 6 6 7 7 6 5 5 7 10 12 14
11 11 11 11 11 10 8 6 5 6 6 5 6 6 8 8 9 7 6 6 5 4 4 4 5 4 4 4 4 5 5 6 5 6 7 5 5 6 5 5 5 6 10
9 10 11 11 10 8 6 7 7 7 6 5 6 7 8 8 8 8 6 6 6 6 6 6 5 5 5 2 2 4 5 5 6 6 4 4 5 5 4 4 4 3 4
10 10 11 11 10 9 9 7 5 4 4 5 4 6 8 8 8 8 8 7 7 6 7 7 6 4 3 4 3 2 4 4 3 4 3 4 4 3 3 4 3 4 3
9 10 10 11 10 10 9 5 3 3 2 3 5 6 7 8 8 8 8 7 7 7 7 7 7 7 5 4 4 4 3 4 3 3 2 2 2 2 3 3 3 4 4
10 8 8 8 8 8 8 7 8 7 8 8 6 5 5 6 7 7 7 7 7 6 7 6 6 6 6 5 4 5 5 3 2 3 3 2 2 3 3 2 3 3 2
8 7 7 6 6 6 7 9 9 7 7 4 3 4 5 5 5 6 6 6 7 6 6 6 5 6 6 6 5 3 5 5 5 5 5 3 2 2 2 2 2 2 2
6 6 6 6 6 6 7 7 8 8 7 5 5 5 5 4 4 5 5 5 6 5 6 6 6 6 6 6 5 4 3 3 4 5 6 5 4 3 2 2 1 2 2
Wind_Direction
151 158 152 149 143 138 134 131 129 126 121 119 116 113 110 108 107 104 102 98 96 92 90 87 84 83 83 82 81 81 79 76 74 72 72 73 76 79 79 73 68 62 72
149 155 152 149 145 142 138 133 132 131 128 124 120 117 114 112 109 107 103 100 98 94 93 91 89 86 84 83 83 84 81 77 73 70 71 70 76 80 83 81 80 78 75
144 150 149 147 145 144 142 139 138 135 134 131 127 125 121 118 116 111 107 104 103 101 98 96 93 90 87 86 84 81 76 68 64 70 72 58 71 84 86 83 79 78 77
145 149 150 147 146 146 146 144 142 140 137 134 131 129 126 124 122 118 114 110 109 107 106 103 99 94 90 86 80 72 58 50 52 68 62 51 61 88 89 88 81 77 73
144 148 150 149 149 149 149 149 147 143 139 136 133 132 130 129 126 124 121 118 114 111 110 110 106 101 95 85 72 59 48 43 48 61 62 71 76 94 91 93 88 80 69
145 148 153 153 154 154 153 153 153 150 146 142 139 136 135 135 134 132 130 129 125 121 118 116 116 109 103 89 68 51 40 35 42 48 69 89 137 123 116 117 117 105 86
146 149 158 156 157 158 158 158 158 156 154 150 148 146 142 141 141 142 143 141 138 135 132 128 126 121 114 102 65 34 27 24 40 36 56 238 219 179 171 173 190 199 224
149 152 160 159 159 161 162 163 164 164 162 159 158 156 154 154 153 153 154 155 154 152 150 150 146 143 144 144 6 346 352 2 21 355 299 256 241 223 221 223 227 236 243
149 153 158 162 164 166 166 167 168 168 168 167 165 163 161 161 162 161 163 167 169 169 172 174 174 179 189 212 264 295 307 318 335 300 275 259 252 245 242 242 245 246 251
153 159 163 165 165 167 169 173 172 171 171 171 169 167 167 169 168 169 173 182 186 186 187 189 195 207 220 238 261 274 285 301 287 281 261 252 250 251 255 254 256 254 256
165 169 169 171 172 171 173 179 177 177 179 177 176 176 172 174 176 180 190 196 201 199 200 203 210 220 228 246 260 268 280 274 276 274 256 255 252 253 258 260 261 261 260
179 181 178 179 180 177 182 175 178 182 182 180 177 179 178 181 192 197 204 206 208 206 210 216 221 226 233 250 268 274 265 263 263 263 256 257 257 258 261 263 265 265 264
182 183 185 185 184 182 183 176 181 182 182 187 187 188 186 187 198 204 201 210 211 211 215 228 233 231 231 236 248 254 253 254 249 255 256 258 260 262 266 269 268 268 268
182 190 187 186 186 188 184 184 184 187 189 193 197 195 189 190 198 199 201 201 200 202 206 217 225 233 238 241 243 249 251 246 244 247 253 256 259 262 268 272 272 272 270
190 193 191 187 188 188 186 188 189 193 195 197 198 201 196 196 200 199 203 202 205 204 206 215 225 234 240 245 244 242 245 246 246 245 253 255 256 260 267 272 274 275 274
199 198 194 192 192 189 191 193 192 194 195 195 200 201 199 199 198 196 202 206 209 208 210 214 220 227 235 238 246 245 246 247 249 249 248 254 254 258 264 271 275 277 277
200 198 196 196 194 193 196 197 196 195 194 199 203 203 202 200 199 200 204 211 213 208 210 216 224 227 238 241 249 251 250 250 253 253 253 250 254 256 259 266 272 276 278
197 196 199 196 195 198 199 197 197 196 197 202 202 202 205 204 201 201 208 216 212 206 206 212 217 225 237 241 249 253 253 256 257 257 256 254 252 255 258 261 266 271 276
198 196 196 197 197 199 200 198 197 195 202 204 201 204 207 207 204 203 211 214 208 209 212 217 218 217 234 244 251 256 256 256 259 260 259 258 253 251 252 259 260 264 270
199 195 195 197 199 197 193 193 195 203 208 206 206 208 205 208 207 207 212 211 204 211 218 217 222 222 228 237 254 263 261 260 258 256 258 260 256 255 254 258 263 267 267
196 194 195 195 197 189 188 193 199 209 208 208 210 208 208 210 208 209 213 211 209 216 220 216 218 226 233 217 248 281 276 261 256 255 252 253 259 260 258 258 257 259 271
197 196 196 197 195 193 198 196 193 190 201 209 207 210 211 211 211 212 214 214 212 217 220 219 215 217 221 193 199 248 297 308 289 265 253 249 256 260 263 262 258 258 263
200 199 197 198 196 198 195 175 160 158 174 199 212 217 216 212 211 212 215 214 213 214 224 222 217 217 226 214 200 198 231 258 301 301 283 264 262 263 269 272 268 268 269
204 199 195 194 193 194 184 179 184 194 207 214 211 211 207 207 211 211 212 212 213 215 223 223 218 219 218 223 215 218 223 212 248 297 302 294 286 268 270 278 278 280 285
197 190 188 182 185 186 182 186 189 202 215 214 197 202 208 209 212 213 213 213 216 218 221 218 215 217 218 222 215 207 224 233 229 246 275 289 300 276 268 265 274 292 304
190 182 179 173 182 183 181 185 190 200 205 198 202 207 213 213 215 220 217 215 218 220 220 220 217 217 221 222 223 215 204 215 224 232 253 269 274 274 269 263 284 299 317